Regional Weather Roundup
Issued by NWS

Home | Current Version | Previous Version | Text Only | Print | Product List | Glossary On
Versions: 1 2 3 4 5 6 7 8 9 10 11 12 13 14 15 16 17 18 19 20 21 22 23 24 25 26 27 28 29 30 31 32 33 34 35 36 37 38 39 40 41 42 43 44 45 46 47 48 49 50
324
ASUS44 KMEG 172210
RWRTN
TENNESSEE HOURLY STATE WEATHER ROUNDUP
NATIONAL WEATHER SERVICE MEMPHIS TN
400 PM CST TUE JAN 17 2017

TNZ002-004-019-021-049-052-054-088>092-172300-
WEST TENNESSEE

CITY           SKY/WX    TMP DP  RH WIND       PRES   REMARKS
MEMPHIS INTL   CLOUDY    54  46  74 W6        30.13R
NWS MEMPHIS      N/A     54 N/A N/A MISG        N/A
JACKSON        CLOUDY    54  45  71 W9        30.12R
DYERSBURG      CLOUDY    50  43  76 W8        30.13R
UNION CITY     CLOUDY    48  45  87 NW10      30.11R
PARIS          CLOUDY    50  45  81 W12       30.09R
HUNTINGDON     CLOUDY    54  48  82 VRB7      30.09R
$$

TNZ008-025-027-028-033-062-065-066-172300-
NORTH MIDDLE TENNESSEE

CITY           SKY/WX    TMP DP  RH WIND       PRES   REMARKS
NASHVILLE      CLOUDY    62  54  74 W7        30.06R
PORTLAND       CLEAR     59  50  72 SW8G14    30.04R
CLARKSVILLE    MOCLDY    56  44  64 W16G22    30.06R
SMYRNA         CLOUDY    61  58  90 W9        30.06R
GALLATIN       MOCLDY    61  54  77 SW10G18   30.07R
CROSSVILLE     CLOUDY    61  58  90 SW14G24   30.07R
$$

TNZ061-075-076-078-094-096-097-172300-
SOUTH MIDDLE TENNESSEE

CITY           SKY/WX    TMP DP  RH WIND       PRES   REMARKS
FAYETTEVILLE   CLOUDY    64  63  94 SW9G16    30.08S
TULLAHOMA      CLOUDY    63  63 100 S13       30.07R
WINCHESTER     CLOUDY    64  63  94 CALM      30.08S
MCMINNVILLE    CLOUDY    64  64 100 SW9       30.06R
COLUMBIA       CLOUDY   N/A N/A N/A VRB7      30.06R
SHELBYVILLE    CLOUDY    66  63  88 SW9       30.07R
$$

TNZ017-018-042-046-047-172300-
NORTHEAST TENNESSEE

CITY           SKY/WX    TMP DP  RH WIND       PRES   REMARKS
TRI CITIES     CLOUDY    58  55  90 CALM      30.04F
ELIZABETHTON   CLOUDY    59  57  94 CALM      30.04S
$$

TNZ012-013-036-069-073-074-172300-
CENTRAL EAST TENNESSEE

CITY           SKY/WX    TMP DP  RH WIND       PRES   REMARKS
KNOXVILLE      LGT RAIN  62  59  90 S13       30.03F
OAK RIDGE      CLOUDY    62  59  90 VRB7      30.05S
GATLINBURG     CLOUDY    61  57  88 SW6       30.05S
MORRISTOWN     MOCLDY    61  59  94 SW14G26   30.03F FOG
JACKSBORO      CLOUDY    64  59  82 SW12G23   30.04S
$$

TNZ083-085-099-172300-
SOUTHEAST TENNESSEE

CITY           SKY/WX    TMP DP  RH WIND       PRES   REMARKS
CHATTANOOGA    CLOUDY    70  57  63 S8        30.08S
$$

SKY/WX REPORTED AS FAIR MEANS FEW OR NO CLOUDS BELOW
12 THOUSAND FEET.





USA.gov is the U.S. government's official web portal to all federal, state and local government web resources and services.